Torna al catalogo

COSMOS 839 DEB

AttivoUNKNOWN
NORAD 10447·DEBRIS·🇷🇺 Russia

Lanciato Jul 8, 1976 da Plesetsk Cosmodrome

Loading…

Prossimi Passaggi (prossime 24 ore)

TLE

AggiornatoSource: Space-Track

Epoca: Sep 14, 2026, 08:07 UTC

1 10447U 76067Y   26257.33828392 -.00000069  00000-0 -44644-4 0  9995
2 10447  65.8601 220.0126 0710918 189.4800 326.5033 12.37060192265267

Traccia COSMOS 839 DEB in tempo reale con AllMySat

Download on the App Store